When you browse on this site, cookies collect data to enhance your experience and personalize the content and advertising you see.
Visit our Privacy Policy to learn more. By continuing to use the site, you agree to this use of cookies and data.
  • en France
  • Liste des pays
  • À 7 jours
  • Température de l'eau
  • Carte météo
  • Widgets météo
  • user-avatar
    Se connecter

    Météo par heure à Abomey

    Ce jour, 23 Septembre, Lundi

    Heure Température Précipitation Vent Pression Humidité
    00:00 +25°C° 0 mm 2 m/s 739 mmHg 89%
    01:00 +25°C° 0.2 mm 2 m/s 739 mmHg 90%
    02:00 +25°C° 0.2 mm 2 m/s 739 mmHg 92%
    03:00 +24°C° 0.2 mm 2 m/s 738 mmHg 94%
    04:00 +24°C° 0.1 mm 2 m/s 739 mmHg 95%
    05:00 +24°C° 0.1 mm 2 m/s 739 mmHg 95%
    06:00 +24°C° 0.1 mm 1 m/s 739 mmHg 96%
    07:00 +25°C° 0 mm 2 m/s 739 mmHg 91%
    08:00 +27°C° 0 mm 2 m/s 740 mmHg 86%
    09:00 +28°C° 0 mm 3 m/s 740 mmHg 81%
    10:00 +29°C° 0 mm 2 m/s 740 mmHg 75%
    11:00 +30°C° 0 mm 2 m/s 740 mmHg 70%
    12:00 +32°C° 0 mm 2 m/s 739 mmHg 64%
    13:00 +31°C° 0 mm 2 m/s 739 mmHg 66%
    14:00 +31°C° 0 mm 1 m/s 738 mmHg 67%
    15:00 +31°C° 0 mm 1 m/s 737 mmHg 69%
    16:00 +30°C° 0.3 mm 1 m/s 738 mmHg 75%
    17:00 +29°C° 0.3 mm 1 m/s 738 mmHg 80%
    18:00 +27°C° 0.3 mm 1 m/s 738 mmHg 85%
    19:00 +27°C° 0.6 mm 2 m/s 739 mmHg 88%
    20:00 +26°C° 0.6 mm 2 m/s 739 mmHg 91%
    21:00 +25°C° 0.6 mm 2 m/s 739 mmHg 94%
    22:00 +25°C° 0.7 mm 2 m/s 739 mmHg 95%
    23:00 +24°C° 0.7 mm 2 m/s 740 mmHg 96%

    Demain, 24 Septembre, Mardi

    Heure Température Précipitation Vent Pression Humidité
    00:00 +24°C° 0.7 mm 2 m/s 740 mmHg 97%
    01:00 +24°C° 0 mm 2 m/s 739 mmHg 97%
    02:00 +24°C° 0 mm 2 m/s 739 mmHg 97%
    03:00 +24°C° 0 mm 2 m/s 738 mmHg 97%
    04:00 +24°C° 0 mm 2 m/s 739 mmHg 97%
    05:00 +24°C° 0 mm 2 m/s 739 mmHg 97%
    06:00 +24°C° 0 mm 2 m/s 739 mmHg 97%
    07:00 +25°C° 0 mm 2 m/s 740 mmHg 93%
    08:00 +26°C° 0 mm 1 m/s 740 mmHg 89%
    09:00 +27°C° 0 mm 1 m/s 741 mmHg 85%
    10:00 +28°C° 0 mm 1 m/s 740 mmHg 81%
    11:00 +28°C° 0 mm 1 m/s 740 mmHg 78%
    12:00 +29°C° 0 mm 1 m/s 739 mmHg 75%
    13:00 +29°C° 0.4 mm 2 m/s 739 mmHg 75%
    14:00 +30°C° 0.4 mm 2 m/s 738 mmHg 75%
    15:00 +30°C° 0.4 mm 2 m/s 738 mmHg 74%
    16:00 +29°C° 0.5 mm 2 m/s 738 mmHg 79%
    17:00 +28°C° 0.5 mm 2 m/s 738 mmHg 83%
    18:00 +27°C° 0.5 mm 2 m/s 738 mmHg 88%
    19:00 +26°C° 0.1 mm 2 m/s 739 mmHg 89%
    20:00 +25°C° 0.1 mm 2 m/s 739 mmHg 90%
    21:00 +25°C° 0.1 mm 1 m/s 739 mmHg 90%
    22:00 +25°C° 0 mm 1 m/s 739 mmHg 91%
    23:00 +25°C° 0 mm 1 m/s 739 mmHg 91%

    Après-demain, 25 Septembre, Mercredi

    Heure Température Précipitation Vent Pression Humidité
    00:00 +25°C° 0 mm 1 m/s 739 mmHg 91%
    01:00 +24°C° 0 mm 1 m/s 739 mmHg 92%
    02:00 +24°C° 0 mm 1 m/s 739 mmHg 93%
    03:00 +24°C° 0 mm 1 m/s 738 mmHg 94%
    04:00 +24°C° 0 mm 1 m/s 739 mmHg 94%
    05:00 +24°C° 0 mm 1 m/s 739 mmHg 94%
    06:00 +24°C° 0 mm 1 m/s 739 mmHg 94%
    07:00 +25°C° 0 mm 2 m/s 740 mmHg 89%
    08:00 +27°C° 0 mm 2 m/s 740 mmHg 84%
    09:00 +29°C° 0 mm 2 m/s 740 mmHg 78%
    10:00 +30°C° 0 mm 2 m/s 740 mmHg 72%
    11:00 +31°C° 0 mm 2 m/s 739 mmHg 66%
    12:00 +32°C° 0 mm 2 m/s 739 mmHg 60%
    13:00 +32°C° 0.2 mm 2 m/s 738 mmHg 61%
    14:00 +32°C° 0.2 mm 2 m/s 738 mmHg 63%
    15:00 +32°C° 0.2 mm 2 m/s 737 mmHg 64%
    16:00 +30°C° 1.7 mm 2 m/s 737 mmHg 72%
    17:00 +28°C° 1.7 mm 2 m/s 738 mmHg 80%
    18:00 +27°C° 1.7 mm 2 m/s 738 mmHg 88%
    19:00 +26°C° 0 mm 2 m/s 738 mmHg 90%
    20:00 +26°C° 0 mm 2 m/s 739 mmHg 91%
    21:00 +25°C° 0 mm 1 m/s 739 mmHg 93%
    22:00 +25°C° 0 mm 2 m/s 739 mmHg 94%
    23:00 +25°C° 0 mm 2 m/s 739 mmHg 95%

    26 Septembre, Jeudi

    Heure Température Précipitation Vent Pression Humidité
    00:00 +24°C° 0 mm 2 m/s 739 mmHg 95%
    01:00 +24°C° 0 mm 2 m/s 739 mmHg 95%
    02:00 +24°C° 0 mm 2 m/s 739 mmHg 95%
    03:00 +24°C° 0 mm 2 m/s 739 mmHg 95%
    04:00 +24°C° 0.1 mm 2 m/s 739 mmHg 96%
    05:00 +24°C° 0.1 mm 2 m/s 740 mmHg 96%
    06:00 +24°C° 0.1 mm 2 m/s 740 mmHg 96%
    07:00 +25°C° 1 mm 2 m/s 741 mmHg 94%
    08:00 +26°C° 1 mm 2 m/s 741 mmHg 91%
    09:00 +27°C° 1 mm 2 m/s 741 mmHg 89%
    10:00 +28°C° 0.3 mm 1 m/s 741 mmHg 85%
    11:00 +29°C° 0.3 mm 1 m/s 740 mmHg 81%
    12:00 +30°C° 0.3 mm 1 m/s 739 mmHg 77%
    13:00 +30°C° 0.5 mm 1 m/s 739 mmHg 76%
    14:00 +30°C° 0.5 mm 1 m/s 739 mmHg 75%
    15:00 +30°C° 0.5 mm 1 m/s 738 mmHg 74%
    16:00 +29°C° 0.8 mm 2 m/s 738 mmHg 80%
    17:00 +27°C° 0.8 mm 2 m/s 739 mmHg 86%
    18:00 +26°C° 0.8 mm 2 m/s 739 mmHg 91%
    19:00 +26°C° 0.1 mm 2 m/s 739 mmHg 92%
    20:00 +26°C° 0.1 mm 1 m/s 740 mmHg 93%
    21:00 +25°C° 0.1 mm 1 m/s 740 mmHg 93%
    22:00 +25°C° 0 mm 1 m/s 740 mmHg 94%
    23:00 +25°C° 0 mm 1 m/s 740 mmHg 95%

    27 Septembre, Vendredi

    Heure Température Précipitation Vent Pression Humidité
    00:00 +24°C° 0 mm 2 m/s 740 mmHg 96%
    01:00 +24°C° 0 mm 2 m/s 740 mmHg 97%
    02:00 +24°C° 0 mm 1 m/s 739 mmHg 97%
    03:00 +24°C° 0 mm 1 m/s 739 mmHg 97%
    04:00 +24°C° 0 mm 1 m/s 739 mmHg 97%
    05:00 +24°C° 0 mm 1 m/s 740 mmHg 97%
    06:00 +24°C° 0 mm 1 m/s 740 mmHg 97%
    07:00 +25°C° 0.4 mm 1 m/s 740 mmHg 93%
    08:00 +26°C° 0.4 mm 1 m/s 741 mmHg 89%
    09:00 +25°C° 0.4 mm 0 m/s 741 mmHg 85%
    10:00 +28°C° 0.3 mm 1 m/s 740 mmHg 81%
    11:00 +29°C° 0.3 mm 1 m/s 740 mmHg 77%
    12:00 +30°C° 0.3 mm 1 m/s 739 mmHg 74%
    13:00 +29°C° 2 mm 1 m/s 739 mmHg 77%
    14:00 +29°C° 1.9 mm 2 m/s 738 mmHg 79%
    15:00 +28°C° 2 mm 3 m/s 738 mmHg 82%
    16:00 +27°C° 0.4 mm 2 m/s 738 mmHg 86%
    17:00 +26°C° 0.4 mm 2 m/s 738 mmHg 89%
    18:00 +25°C° 0.4 mm 2 m/s 739 mmHg 93%
    19:00 +25°C° 0 mm 2 m/s 739 mmHg 94%
    20:00 +25°C° 0 mm 1 m/s 739 mmHg 94%
    21:00 +24°C° 0 mm 1 m/s 740 mmHg 95%
    22:00 +24°C° 0 mm 1 m/s 740 mmHg 96%
    23:00 +24°C° 0 mm 1 m/s 740 mmHg 96%

    28 Septembre, Samedi

    Heure Température Précipitation Vent Pression Humidité
    00:00 +24°C° 0 mm 1 m/s 740 mmHg 97%
    01:00 +22°C° 0 mm 0 m/s 739 mmHg 96%
    02:00 +22°C° 0 mm 0 m/s 739 mmHg 96%
    03:00 +22°C° 0 mm 0 m/s 739 mmHg 95%
    04:00 +22°C° 0 mm 0 m/s 740 mmHg 95%
    05:00 +22°C° 0 mm 0 m/s 740 mmHg 95%
    06:00 +24°C° 0 mm 1 m/s 740 mmHg 95%
    07:00 +25°C° 0 mm 1 m/s 741 mmHg 89%
    08:00 +25°C° 0 mm 0 m/s 741 mmHg 84%
    09:00 +26°C° 0 mm 0 m/s 741 mmHg 78%
    10:00 +30°C° 0 mm 1 m/s 740 mmHg 72%
    11:00 +31°C° 0 mm 1 m/s 739 mmHg 65%
    12:00 +32°C° 0 mm 2 m/s 738 mmHg 59%
    13:00 +32°C° 0 mm 2 m/s 738 mmHg 59%
    14:00 +34°C° 0 mm 2 m/s 738 mmHg 59%
    15:00 +34°C° 0 mm 2 m/s 737 mmHg 59%
    16:00 +31°C° 0 mm 2 m/s 737 mmHg 66%
    17:00 +29°C° 0 mm 3 m/s 737 mmHg 72%
    18:00 +28°C° 0 mm 3 m/s 738 mmHg 79%
    19:00 +27°C° 0 mm 3 m/s 738 mmHg 82%
    20:00 +26°C° 0 mm 2 m/s 738 mmHg 85%
    21:00 +25°C° 0 mm 2 m/s 739 mmHg 87%
    22:00 +25°C° 0 mm 2 m/s 739 mmHg 88%
    23:00 +25°C° 0 mm 2 m/s 739 mmHg 89%
    Voir plus